Showing default

GJZ 03, 62292

Orbit data source: Space-Track

GJZ 03, 62292 is a payload satellite owned by CASC (CN) in LEO that was launched on Thu, 12 Dec 2024 UTC via a CHANG ZHENG 2D/YZ-3 launch vehicle from the Jiuquan Satellite Launch Center, China (JSC). Payloads include a variety of satellites, spacecraft, and rockets equipped with specific instruments for various scientific and technological missions. These include communications satellites like Starlink; space stations such as the ISS; scientific satellites like the Hubble; Earth observation satellites from companies like Planet Labs, Umbra, and HawkEye 360; GPS; miniature CubeSats for education and research; and military/defense satellites.

Loading next visibility...
GJZ 03 details
Identifier
62292, 2024-238C
Orbit
LEO
Last TLE update9 hours ago
Origin
Flag of CNCASC (CN / PRC)
ManufacturerHITSAT
MissionOperational spacecraft
Bus & MotorHARBFLAT, Unknown motor
Mass~150 kg wet, ~150 kg dry
Launch date (UTC)
2024-12-12 (2 weeks ago)
Launch vehicle
CHANG ZHENG 2D/YZ-3
Launch site
Jiuquan Satellite Launch Center, China (JSC)
Object type
Payload
Rocket body
Debris
Shape & HBRUnknown
Radar Cross SectionLarge (>1 m²)

Expand to show TLE details & history

TLE from 9 hours ago
0 GJZ 03
1 62292U 24238C   24361.09469444  .00000215  00000-0  35078-3 0  9990
2 62292  59.9132  99.6349 0008975 282.7561  77.2443 13.74623975  1883
Epoch: 2024-12-26T02:16Z
Definitive object data (Epoch: 2024-12-26T02:16:21.599Z)
Latitude-0.00005°
Longitude-29.53414°
Altitude983.048 km
Speed7.362 km/s
True Right ascension06h 38m 32s
True Declination0° 00' 00"
Sunlit
Object was in full shadow at TLE epoch
Visualization TLE readout
Latitude24.38812°
Longitude-15.50338°
Altitude986.296 km
Speed7.36 km/s
Apparent Right ascension04h 27m 08s
Apparent Declination-12° 42' 22"
Sunlit
Object is in full shadow
Visualization observer readout
Local Sidereal Time10:29:36
Azimuth260.573° W
Elevation-8.581°
Doppler factor1
Orbital elements
Apogee altitude988.891 km
Perigee altitude975.679 km
Semi-major axis7,360.422 km
Eccentricity0.0008975
Inclination59.9132°
RAAN99.6349°
Arg. of periapsis282.7561°
True anomaly77.34463°
Mean anomaly77.2443°
Eccentric anomaly77.29446°
Mean motion3.43708 °/min
BSTAR0.00035078
Orbital period104.74 mins
Loading maneuver chart data...
Loading historical data...
Loading historical data...
Loading historical data...
Loading historical data...
Loading historical data...
Loading historical data...
Loading historical data...
Other satellites on launch #238 in the year 2024 (2024-12-12 UTC)

GJZ 03 Visibility forecast

Observer location: undefined°, undefined

Span
Click to sort rows by Start time (UTC) header in descending order
Start Az.
Max El. time (UTC)
Max El. Az.
Max El.
End time (UTC)
End Az.
9 mins2024-12-26 11:15:18.281Z288.588° WNW2024-12-26 11:19:18.281Z328.67° NNW19.233°2024-12-26 11:24:18.281Z19.892° NNE
7 mins2024-12-26 14:59:18.281Z353.564° N2024-12-26 15:02:18.281Z27.43° NE19.208°2024-12-26 15:06:18.281Z68.93° E
11 mins2024-12-26 16:47:18.281Z328.081° NNW2024-12-26 16:52:18.281Z67.893° E42.668°2024-12-26 16:58:18.281Z131.279° SE
8 mins2024-12-26 18:36:18.281Z287.342° WNW2024-12-26 18:40:18.281Z241.746° WSW21.626°2024-12-26 18:44:18.281Z199.394° SSW
10 mins2024-12-27 08:05:18.281Z184.241° SSW2024-12-27 08:09:18.281Z123.636° SE35.996°2024-12-27 08:15:18.281Z50.583° ENE
10 mins2024-12-27 09:53:18.281Z256.915° W2024-12-27 09:58:18.281Z324.408° NNW32.332°2024-12-27 10:03:18.281Z24.858° NE
|